Location: Unspecified
(0.0000°N, 0.0000°E)
Time: 02:32:52
(UTC+00:00)

YUBILEINY - Pass Details

Date: 14 December 2017
Orbit: 1478 x 1509 km, 82.5° (Epoch: 21 January)

Event Time Altitude Azimuth Distance (km) Brightness Sun altitude
Rises 03:49:17 0° 205° (SSW) 4,617 ? -28.5°
Reaches altitude 10° 03:52:35 10° 215° (SW) 3,640 ? -27.8°
Enters shadow 03:57:00 25° 242° (WSW) 2,637 ? -26.8°
